This is the latest recevied weather packets stored in our database for station/object KA0EGE. If no packets are shown the sender has not sent any weather packets the latest 10 day(s).
| Time | Temp. | Humidity | Pressure | Rain* | Wind** | Luminosity | Snow |
|---|---|---|---|---|---|---|---|
| 1777925110 | 25.56° C | 38% | 1018.2 hPa | 0 mm | - | 704 W/m² | - |
| 1777924807 | 25.56° C | 39% | 1018.2 hPa | 0 mm | - | 716 W/m² | - |
| 1777924503 | 25.56° C | 41% | 1018.3 hPa | 0 mm | - | 727 W/m² | - |
| 1777924200 | 25.56° C | 39% | 1018.4 hPa | 0 mm | - | 739 W/m² | - |
| 1777923896 | 25.56° C | 38% | 1018.3 hPa | 0 mm | - | 750 W/m² | - |
| 1777923591 | 26.11° C | 40% | 1018.4 hPa | 0 mm | - | 759 W/m² | - |
| 1777923289 | 26.11° C | 37% | 1018.5 hPa | 0 mm | - | 771 W/m² | - |
| 1777922988 | 25.56° C | 38% | 1018.7 hPa | 0 mm | - | 780 W/m² | - |
| 1777922684 | 26.67° C | 40% | 1018.7 hPa | 0 mm | - | 786 W/m² | - |
| 1777922383 | 26.11° C | 40% | 1018.4 hPa | 0 mm | - | 797 W/m² | - |
| 1777922081 | 26.67° C | 37% | 1018.5 hPa | 0 mm | - | 801 W/m² | - |
| 1777921776 | 26.67° C | 38% | 1018.6 hPa | 0 mm | - | 809 W/m² | - |
| 1777921472 | 27.22° C | 36% | 1018.7 hPa | 0 mm | - | 817 W/m² | - |
| 1777921169 | 26.67° C | 37% | 1018.8 hPa | 0 mm | - | 828 W/m² | - |
| 1777920866 | 26.67° C | 36% | 1019 hPa | 0 mm | - | 833 W/m² | - |
| 1777920562 | 26.67° C | 37% | 1019 hPa | 0 mm | - | 840 W/m² | - |
| 1777920258 | 26.11° C | 33% | 1019.2 hPa | 0 mm | - | 845 W/m² | - |
| 1777919954 | 26.67° C | 35% | 1019.1 hPa | 0 mm | - | 851 W/m² | - |
| 1777919652 | 27.22° C | 33% | 1018.9 hPa | 0 mm | - | 856 W/m² | - |
| 1777919349 | 26.67° C | 32% | 1019.1 hPa | 0 mm | - | 862 W/m² | - |
| 1777919046 | 26.11° C | 35% | 1019 hPa | 0 mm | - | 866 W/m² | - |
| 1777918743 | 26.67° C | 35% | 1019.2 hPa | 0 mm | - | 867 W/m² | - |
| 1777918440 | 26.11° C | 34% | 1019.2 hPa | 0 mm | - | 871 W/m² | - |
| 1777918139 | 26.67° C | 32% | 1019.3 hPa | 0 mm | - | 873 W/m² | - |
| 1777917837 | 26.11° C | 36% | 1019.3 hPa | 0 mm | - | 877 W/m² | - |
* Rain latest hour (hover to see other rain measurements)
** Current wind speed in m/s (hover to see current wind gust speed)